[[{"header":{"parameterUnit":"m.s-1","parameterCategory":1,"la1":30.2991,"la2":30.254,"lo1":-89.0895,"lo2":-89.0444,"dy":0.0017,"dx":0.0017,"nx":28,"ny":28,"refTime":"2025-02-26T09:00:00:Z","depth":0,"parameterNumber":2,"parameterNumberName":"U-component_of_WINDS"},"data":[0,0,0,0,0,0,0,0,0,0,0,0,0,0,0,0,0,0,0,0,0,0,0,0,0,0,0,0,0,0,0,0,0,0,0,0,0,0,0,0,0,0,0,0,0,0,0,0,0,0,0,0,0,0,0,0,0,0,-0.2214,-0.2214,0,-0.2216,-0.2216,-0.2216,-0.2243,-0.2244,-0.2244,-0.2245,-0.2245,-0.2244,-0.2244,0,0,0,0,0,0,0,0,0,0,0,0,0,-0.2231,-0.2231,-0.2214,-0.2214,-0.2214,-0.2216,-0.2216,-0.2216,-0.2243,-0.2244,-0.2244,-0.2245,-0.2245,-0.2244,-0.2244,0,0,0,0,0,0,0,0,0,0,0,0,0,-0.2228,-0.2231,-0.2214,-0.2227,-0.2229,-0.2216,-0.2216,-0.2216,-0.2243,-0.2244,-0.2245,-0.2246,-0.2245,-0.2245,-0.2244,-0.2217,0,0,-0.2241,-0.224,0,0,0,0,0,0,0,0,-0.2228,-0.2227,-0.2225,-0.2226,-0.2228,-0.223,-0.2222,-0.2216,-0.2242,-0.2237,-0.2245,-0.2246,-0.2239,-0.2239,-0.2237,-0.2217,-0.2217,-0.2241,-0.224,-0.224,-0.2239,0,0,0,0,0,0,0,-0.2228,-0.2227,-0.2214,-0.2225,-0.2227,-0.2233,-0.2234,-0.2221,-0.2232,-0.2238,-0.224,-0.224,-0.224,-0.2238,-0.2237,-0.2217,-0.2241,-0.224,-0.2239,-0.2239,-0.2175,-0.2174,0,0,0,0,0,0,-0.2227,-0.2227,-0.2214,-0.2214,-0.223,-0.2232,-0.2233,-0.2228,-0.2232,-0.2234,-0.2239,-0.2241,-0.2239,-0.2238,-0.2237,-0.2205,-0.224,-0.2239,-0.2238,-0.2176,-0.2175,-0.2173,0,0,0,0,0,0,-0.2227,-0.2225,-0.2214,-0.2221,-0.222,-0.223,-0.2225,-0.2228,-0.2225,-0.2233,-0.2235,-0.2234,-0.224,-0.2238,-0.2222,-0.2206,-0.2238,-0.2237,-0.2177,-0.2176,-0.2174,-0.2142,0,0,0,0,0,0,-0.2227,-0.2225,-0.2215,-0.2221,-0.222,-0.2199,-0.2225,-0.2227,-0.2224,-0.2227,-0.223,-0.2231,-0.224,-0.2223,-0.2221,-0.2205,-0.2237,-0.2179,-0.2177,-0.2175,-0.2144,-0.2139,-0.2135,0,0,0,0,0,-0.2228,-0.2206,-0.2215,-0.2213,-0.2208,-0.2198,-0.2198,-0.2209,-0.2223,-0.2212,-0.2218,-0.2231,-0.2208,-0.2221,-0.2219,-0.2202,-0.218,-0.2177,-0.2175,-0.2146,-0.214,-0.2135,0,0,0,0,0,0,-0.2197,-0.2207,-0.2217,-0.2196,-0.2196,-0.2203,-0.219,-0.2202,-0.2198,-0.2201,-0.2215,-0.2215,-0.2196,-0.2198,-0.2212,-0.2177,-0.2196,-0.2193,-0.2176,-0.217,-0.2165,-0.2164,-0.2236,0,0,0,0,0,-0.2188,-0.218,-0.2189,-0.2169,-0.2169,-0.218,-0.2176,-0.2185,-0.2185,-0.2185,-0.2189,-0.2189,-0.2181,-0.2176,-0.217,-0.2146,-0.2146,-0.2133,-0.2129,-0.2125,-0.2121,-0.2107,-0.2102,-0.2165,-0.2165,-0.2165,0,0,-0.2169,-0.2173,-0.2167,-0.2163,-0.2165,-0.2155,-0.2179,-0.2169,-0.2161,-0.2184,-0.2168,-0.2171,-0.2171,-0.215,-0.2141,-0.2151,-0.2104,-0.2122,-0.2118,-0.2117,-0.2104,-0.2098,-0.2093,-0.2163,-0.2164,-0.2164,0,0,-0.2129,-0.2132,-0.2116,-0.2117,-0.2119,-0.2126,-0.2122,-0.2128,-0.213,-0.2115,-0.2132,-0.2124,-0.2111,-0.211,-0.2108,-0.2069,-0.2081,-0.2067,-0.2041,-0.2028,-0.2023,-0.2018,-0.2003,-0.1997,-0.2064,-0.2064,-0.2064,0,-0.2104,-0.2091,-0.2106,-0.2094,-0.2091,-0.2113,-0.2096,-0.2096,-0.2096,-0.2093,-0.2105,-0.2089,-0.2091,-0.207,-0.2061,-0.2059,-0.2054,-0.2065,-0.2023,-0.2018,-0.2014,-0.2,-0.1994,-0.2062,-0.2062,-0.2062,-0.2062,0,-0.206,-0.2051,-0.2038,-0.2037,-0.2034,-0.202,-0.2032,-0.2027,-0.2036,-0.2042,-0.2026,-0.203,-0.2024,-0.202,-0.203,-0.2,-0.2006,-0.202,-0.204,-0.2006,-0.1992,-0.1987,-0.2059,-0.206,-0.206,-0.2061,0,0,-0.1998,-0.2008,-0.2002,-0.2002,-0.2007,-0.1999,-0.1986,-0.1982,-0.1976,-0.1976,-0.1964,-0.1954,-0.1967,-0.1964,-0.1974,-0.1963,-0.193,-0.1978,-0.1978,-0.1967,-0.1896,-0.1884,-0.1877,-0.1939,-0.1938,-0.1937,-0.1896,0,-0.1958,-0.1936,-0.195,-0.1926,-0.1917,-0.1937,-0.1926,-0.1927,-0.1933,-0.1926,-0.1932,-0.1924,-0.1942,-0.1941,-0.1931,-0.1936,-0.1915,-0.1939,-0.1926,-0.1926,-0.1923,-0.1871,-0.1858,-0.1818,-0.189,-0.189,-0.1889,0,-0.1908,-0.1906,-0.1881,-0.1887,-0.1884,-0.1873,-0.187,-0.1864,-0.1865,-0.187,-0.1868,-0.1881,-0.1868,-0.1889,-0.1871,-0.1887,-0.1883,-0.1885,-0.1883,-0.1881,-0.1903,-0.1864,-0.1806,-0.1799,-0.1881,-0.1882,-0.1882,0,-0.1863,-0.1854,-0.1838,-0.1838,-0.1845,-0.1837,-0.1839,-0.1842,-0.1839,-0.1836,-0.1834,-0.183,-0.1827,-0.1823,-0.1834,-0.1849,-0.1813,-0.1836,-0.1816,-0.1815,-0.1805,-0.1805,-0.1743,-0.1806,-0.1806,-0.1806,-0.1807,0,-0.1815,-0.1799,-0.1818,-0.1807,-0.1789,-0.1806,-0.1787,-0.1792,-0.1795,-0.1785,-0.1804,-0.1794,-0.181,-0.1802,-0.1811,-0.1793,-0.1793,-0.1795,-0.1797,-0.1792,-0.1791,-0.1788,-0.179,-0.1805,-0.1805,-0.1806,-0.1806,0,-0.1761,-0.1773,-0.1757,-0.1766,-0.1768,-0.1754,-0.1761,-0.1751,-0.1759,-0.1747,-0.1745,-0.1757,-0.1748,-0.176,-0.1752,-0.1758,-0.1734,-0.1741,-0.1733,-0.1734,-0.1712,-0.1713,-0.1644,-0.1635,-0.1706,-0.1705,-0.1705,0,-0.1728,-0.1716,-0.1724,-0.172,-0.1721,-0.1714,-0.171,-0.1726,-0.1722,-0.1724,-0.1714,-0.1707,-0.1702,-0.1688,-0.1695,-0.169,-0.1695,-0.1672,-0.1695,-0.169,-0.1693,-0.1692,-0.169,-0.1666,-0.1665,-0.1665,-0.1664,0,-0.1669,-0.1676,-0.1671,-0.1668,-0.1664,-0.1662,-0.1662,-0.1657,-0.1674,-0.1668,-0.166,-0.1657,-0.165,-0.1642,-0.1639,-0.1641,-0.1654,-0.1657,-0.1652,-0.1645,-0.164,-0.164,-0.1718,-0.1658,-0.1659,-0.1659,-0.1659,-0.166,-0.1623,-0.1613,-0.1617,-0.1611,-0.1613,-0.1612,-0.1603,-0.1611,-0.1605,-0.16,-0.1611,-0.16,-0.1602,-0.1599,-0.16,-0.1591,-0.1601,-0.1594,-0.1592,-0.1589,-0.1585,-0.1644,-0.1591,-0.1591,-0.1591,-0.1592,-0.1592,0,-0.1562,-0.1567,-0.1561,-0.156,-0.1555,-0.1571,-0.1572,-0.1566,-0.1557,-0.1558,-0.1554,-0.1544,-0.1538,-0.1545,-0.154,-0.1531,-0.1537,-0.1529,-0.1528,-0.1528,-0.1577,-0.1581,-0.1524,-0.1524,-0.1524,-0.1524,-0.1524,-0.1524,-0.153,-0.1513,-0.1521,-0.1506,-0.151,-0.15,-0.1499,-0.1498,-0.15,-0.1489,-0.1484,-0.1489,-0.1493,-0.1488,-0.1482,-0.1485,-0.1481,-0.147,-0.1474,-0.1519,-0.1525,-0.1531,-0.1535,-0.1469,-0.1469,-0.1426,-0.1425,-0.1425]},{"header":{"parameterUnit":"m.s-1","parameterCategory":1,"la1":30.2991,"la2":30.254,"lo1":-89.0895,"lo2":-89.0444,"dy":0.0017,"dx":0.0017,"nx":28,"ny":28,"refTime":"2025-02-26T09:00:00:Z","depth":0,"parameterNumber":3,"parameterNumberName":"V-component_of_WINDS"},"data":[0,0,0,0,0,0,0,0,0,0,0,0,0,0,0,0,0,0,0,0,0,0,0,0,0,0,0,0,0,0,0,0,0,0,0,0,0,0,0,0,0,0,0,0,0,0,0,0,0,0,0,0,0,0,0,0,0,0,-0.3532,-0.3532,0,-0.3532,-0.3532,-0.3532,-0.3542,-0.3543,-0.3543,-0.3543,-0.3543,-0.3543,-0.3543,0,0,0,0,0,0,0,0,0,0,0,0,0,-0.3541,-0.3541,-0.3532,-0.3532,-0.3532,-0.3532,-0.3532,-0.3532,-0.3542,-0.3543,-0.3543,-0.3543,-0.3543,-0.3543,-0.3543,0,0,0,0,0,0,0,0,0,0,0,0,0,-0.3539,-0.3541,-0.3532,-0.3537,-0.3538,-0.3532,-0.3532,-0.3532,-0.3542,-0.3543,-0.3543,-0.3543,-0.3543,-0.3543,-0.3543,-0.3532,0,0,-0.3541,-0.3541,0,0,0,0,0,0,0,0,-0.3539,-0.3539,-0.3536,-0.3537,-0.3537,-0.3538,-0.3535,-0.3532,-0.3542,-0.354,-0.3543,-0.3544,-0.3541,-0.3541,-0.354,-0.3532,-0.3532,-0.3541,-0.3541,-0.3541,-0.3541,0,0,0,0,0,0,0,-0.3539,-0.3539,-0.3532,-0.3536,-0.3537,-0.354,-0.354,-0.3535,-0.3538,-0.3541,-0.3541,-0.3541,-0.3541,-0.354,-0.354,-0.3532,-0.3541,-0.3541,-0.3541,-0.3541,-0.3516,-0.3515,0,0,0,0,0,0,-0.3539,-0.3539,-0.3532,-0.3532,-0.3539,-0.3539,-0.3539,-0.3537,-0.3539,-0.3539,-0.3541,-0.3542,-0.3541,-0.354,-0.354,-0.3528,-0.3541,-0.3541,-0.354,-0.3516,-0.3516,-0.3515,0,0,0,0,0,0,-0.3539,-0.3538,-0.3532,-0.3536,-0.3535,-0.3539,-0.3536,-0.3537,-0.3536,-0.3539,-0.3539,-0.3539,-0.3541,-0.3541,-0.3534,-0.3528,-0.354,-0.354,-0.3517,-0.3516,-0.3515,-0.3503,0,0,0,0,0,0,-0.3539,-0.3538,-0.3534,-0.3535,-0.3535,-0.3526,-0.3536,-0.3537,-0.3535,-0.3536,-0.3537,-0.3538,-0.3541,-0.3534,-0.3534,-0.3527,-0.354,-0.3517,-0.3516,-0.3516,-0.3504,-0.3502,-0.35,0,0,0,0,0,-0.3539,-0.353,-0.3534,-0.3533,-0.353,-0.3525,-0.3525,-0.3529,-0.3535,-0.3531,-0.3532,-0.3538,-0.3529,-0.3534,-0.3533,-0.3526,-0.3518,-0.3517,-0.3516,-0.3505,-0.3502,-0.35,0,0,0,0,0,0,-0.3528,-0.3531,-0.3534,-0.3526,-0.3525,-0.3527,-0.3522,-0.3527,-0.3525,-0.3526,-0.3531,-0.3531,-0.3524,-0.3525,-0.353,-0.3516,-0.3524,-0.3523,-0.3516,-0.3514,-0.3512,-0.3512,-0.3539,0,0,0,0,0,-0.3525,-0.3521,-0.3523,-0.3515,-0.3515,-0.3519,-0.3517,-0.352,-0.352,-0.352,-0.3521,-0.3521,-0.3518,-0.3516,-0.3514,-0.3504,-0.3504,-0.3499,-0.3498,-0.3496,-0.3495,-0.349,-0.3487,-0.3512,-0.3512,-0.3512,0,0,-0.3517,-0.3518,-0.3516,-0.3513,-0.3513,-0.3509,-0.3518,-0.3514,-0.3511,-0.3519,-0.3513,-0.3514,-0.3514,-0.3506,-0.3503,-0.3506,-0.3488,-0.3495,-0.3494,-0.3493,-0.3488,-0.3486,-0.3484,-0.3511,-0.3511,-0.3511,0,0,-0.3502,-0.3502,-0.3496,-0.3496,-0.3496,-0.3498,-0.3497,-0.3498,-0.3499,-0.3493,-0.3499,-0.3496,-0.3491,-0.349,-0.349,-0.3474,-0.3479,-0.3474,-0.3464,-0.3459,-0.3457,-0.3455,-0.3449,-0.3447,-0.3472,-0.3472,-0.3472,0,-0.3493,-0.3487,-0.3492,-0.3487,-0.3485,-0.3493,-0.3486,-0.3486,-0.3485,-0.3484,-0.3489,-0.3483,-0.3483,-0.3475,-0.3471,-0.3471,-0.3469,-0.3473,-0.3457,-0.3455,-0.3453,-0.3448,-0.3446,-0.3472,-0.3472,-0.3472,-0.3472,0,-0.3475,-0.3471,-0.3466,-0.3465,-0.3463,-0.3457,-0.3461,-0.3459,-0.3463,-0.3465,-0.3458,-0.346,-0.3457,-0.3456,-0.3459,-0.3448,-0.345,-0.3456,-0.3463,-0.345,-0.3445,-0.3443,-0.3471,-0.3471,-0.3471,-0.3471,0,0,-0.3452,-0.3454,-0.3452,-0.3452,-0.3453,-0.3449,-0.3444,-0.3442,-0.344,-0.3439,-0.3435,-0.343,-0.3435,-0.3434,-0.3438,-0.3434,-0.3421,-0.3439,-0.3439,-0.3435,-0.3408,-0.3404,-0.3401,-0.3424,-0.3424,-0.3424,-0.3408,0,-0.3437,-0.3428,-0.3432,-0.3422,-0.3418,-0.3426,-0.3421,-0.3421,-0.3423,-0.342,-0.3422,-0.3419,-0.3426,-0.3425,-0.3421,-0.3423,-0.3416,-0.3425,-0.342,-0.342,-0.3419,-0.3399,-0.3394,-0.3379,-0.3406,-0.3406,-0.3406,0,-0.3418,-0.3416,-0.3406,-0.3407,-0.3406,-0.3401,-0.34,-0.3397,-0.3397,-0.3399,-0.3398,-0.3403,-0.3398,-0.3406,-0.3399,-0.3405,-0.3403,-0.3404,-0.3403,-0.3403,-0.3411,-0.3397,-0.3375,-0.3372,-0.3403,-0.3403,-0.3403,0,-0.3401,-0.3397,-0.339,-0.3389,-0.3391,-0.3388,-0.3388,-0.3389,-0.3387,-0.3386,-0.3385,-0.3383,-0.3382,-0.3381,-0.3385,-0.339,-0.3377,-0.3386,-0.3378,-0.3378,-0.3374,-0.3374,-0.3351,-0.3374,-0.3374,-0.3374,-0.3374,0,-0.3383,-0.3377,-0.3383,-0.3378,-0.3371,-0.3376,-0.3369,-0.3371,-0.3371,-0.3367,-0.3374,-0.337,-0.3376,-0.3373,-0.3376,-0.3369,-0.3369,-0.337,-0.3371,-0.3369,-0.3369,-0.3368,-0.3369,-0.3374,-0.3374,-0.3374,-0.3374,0,-0.3364,-0.3367,-0.336,-0.3363,-0.3363,-0.3357,-0.3359,-0.3356,-0.3358,-0.3353,-0.3352,-0.3356,-0.3353,-0.3357,-0.3354,-0.3356,-0.3347,-0.335,-0.3347,-0.3347,-0.3339,-0.334,-0.3314,-0.3311,-0.3337,-0.3336,-0.3336,0,-0.3352,-0.3347,-0.3348,-0.3346,-0.3346,-0.3343,-0.3341,-0.3346,-0.3345,-0.3344,-0.3341,-0.3338,-0.3336,-0.333,-0.3333,-0.3331,-0.3333,-0.3324,-0.3333,-0.3331,-0.3332,-0.3332,-0.3331,-0.3322,-0.3322,-0.3321,-0.3321,0,-0.333,-0.3332,-0.3329,-0.3327,-0.3325,-0.3324,-0.3323,-0.3321,-0.3327,-0.3324,-0.3321,-0.3319,-0.3316,-0.3313,-0.3312,-0.3313,-0.3318,-0.3319,-0.3317,-0.3314,-0.3313,-0.3313,-0.3341,-0.3319,-0.3319,-0.3319,-0.332,-0.332,-0.3313,-0.3309,-0.331,-0.3306,-0.3306,-0.3306,-0.3302,-0.3304,-0.3301,-0.3299,-0.3303,-0.3298,-0.3299,-0.3297,-0.3297,-0.3294,-0.3298,-0.3295,-0.3294,-0.3293,-0.3292,-0.3314,-0.3294,-0.3294,-0.3294,-0.3294,-0.3294,0,-0.3292,-0.3292,-0.3289,-0.3288,-0.3285,-0.3291,-0.329,-0.3288,-0.3284,-0.3284,-0.3282,-0.3278,-0.3275,-0.3277,-0.3275,-0.3272,-0.3274,-0.3271,-0.3271,-0.3271,-0.3289,-0.3291,-0.3269,-0.3269,-0.3269,-0.3269,-0.3269,-0.3269,-0.328,-0.3273,-0.3275,-0.3268,-0.3269,-0.3265,-0.3264,-0.3263,-0.3263,-0.3258,-0.3256,-0.3258,-0.3259,-0.3256,-0.3254,-0.3255,-0.3254,-0.3249,-0.3251,-0.3268,-0.327,-0.3272,-0.3274,-0.3249,-0.3249,-0.3233,-0.3233,-0.3233]}]]